Dewpoint
64 69 74 73 72 72 71 71 70 70 71 72 72 72 72 72 72 72 71 69 69 68 68 68 68 70 70 71 69 68 68 68 68 68 68 68 68 68 69 69 70 67 69
63 68 73 73 72 72 72 72 73 72 71 72 73 72 72 72 72 71 70 69 68 68 68 68 68 68 70 70 68 68 67 66 66 67 67 67 67 65 66 67 68 66 68
62 67 70 73 73 73 73 72 72 72 72 72 73 72 72 72 72 71 69 68 69 70 69 67 68 68 69 70 68 67 66 65 65 66 67 59 62 65 64 63 64 65 66
62 67 67 73 73 73 73 72 71 72 72 72 73 73 73 72 71 70 69 69 70 70 70 67 68 68 70 70 68 67 65 64 63 65 58 58 59 65 64 65 64 63 63
64 67 69 73 73 72 72 71 71 71 71 73 72 73 73 72 71 69 69 70 68 70 69 68 69 69 69 69 68 67 65 63 64 63 60 62 63 64 65 64 63 64 64
65 66 71 72 73 72 73 72 70 71 71 72 72 72 72 72 70 69 70 68 70 67 69 69 70 69 70 69 68 67 65 65 66 60 61 63 63 64 65 64 64 64 64
65 67 69 72 72 72 73 72 70 70 71 71 72 72 72 71 68 68 70 70 69 68 68 68 69 70 70 69 68 67 64 64 60 60 60 62 63 65 66 65 64 64 64
65 67 67 70 72 72 72 71 70 70 70 71 71 71 71 69 68 66 69 69 68 68 67 67 66 66 67 68 67 65 63 64 57 59 60 62 66 65 65 65 64 63 63
62 66 68 67 69 71 71 70 69 70 70 70 71 71 70 69 68 66 67 67 67 67 66 66 65 64 64 63 62 62 61 62 57 57 58 62 66 64 64 64 64 62 62
62 61 68 68 66 66 68 69 69 69 70 70 70 69 68 68 66 67 65 66 68 68 67 66 64 63 62 61 60 59 60 61 54 56 56 61 66 64 63 64 63 63 61
61 61 64 68 65 63 66 66 68 69 68 68 68 67 65 63 63 64 65 65 68 68 66 65 63 62 63 62 60 58 58 51 52 53 54 62 62 62 62 64 64 63 62
59 59 61 62 67 64 66 66 63 61 62 60 63 63 63 62 61 61 65 66 68 67 67 65 63 62 59 50 52 55 48 49 49 53 55 61 60 63 61 63 64 64 63
60 61 61 61 64 63 65 67 62 60 57 59 61 62 59 59 61 62 64 64 63 64 60 61 60 54 50 49 50 48 51 53 53 55 55 59 59 62 63 62 63 64 65
60 60 61 62 61 64 64 67 66 60 58 57 58 58 58 60 62 59 59 60 59 58 56 56 54 51 51 50 50 51 53 56 56 57 58 61 61 61 63 63 63 63 64
58 60 61 62 62 64 59 67 67 66 61 59 57 57 58 59 61 58 57 57 57 56 54 54 52 50 50 52 54 54 56 56 56 57 58 61 62 63 64 64 64 63 63
58 60 61 62 62 65 58 64 67 67 66 64 60 59 57 58 59 57 56 55 55 55 55 52 51 52 52 55 57 57 57 57 57 57 57 59 63 64 64 65 65 65 64
58 60 60 61 63 64 61 60 64 67 67 66 64 61 61 60 59 57 57 58 58 58 53 53 52 55 56 56 56 57 57 57 57 56 56 58 60 63 64 64 64 64 64
58 59 60 61 62 63 65 64 61 61 64 68 67 66 63 62 61 60 61 61 60 58 57 53 55 56 57 57 57 57 57 57 56 55 56 57 59 57 62 65 63 62 63
58 59 60 61 61 63 62 65 64 63 64 63 64 65 65 65 64 62 59 60 60 60 58 56 57 57 57 57 57 57 58 56 55 54 55 56 57 59 59 63 62 62 64
58 59 60 61 61 62 63 65 65 64 65 63 64 64 65 65 64 62 61 61 62 61 59 59 57 57 56 56 56 56 58 57 58 56 55 54 53 56 57 59 61 60 62
58 59 60 60 61 62 63 63 63 62 64 65 65 64 64 63 63 63 64 63 62 61 59 58 58 57 57 60 59 58 58 57 56 56 55 53 53 54 56 58 59 60 59
60 59 61 61 61 62 63 62 63 63 63 64 64 63 62 62 63 63 64 65 63 63 61 62 58 57 58 60 59 58 55 54 55 54 53 52 52 55 56 57 58 59 58
59 60 59 60 61 62 62 63 62 63 63 63 64 63 63 63 63 64 65 65 64 64 63 62 63 60 61 62 62 59 53 52 53 53 55 52 52 53 55 56 56 56 55
58 59 60 61 61 62 62 61 61 61 60 61 63 63 63 63 63 64 65 65 65 64 63 62 63 63 62 60 62 61 59 58 52 48 52 52 52 51 53 55 54 53 53
54 59 60 60 61 62 61 61 61 61 61 62 61 61 61 62 62 62 63 63 64 64 63 63 61 60 60 60 60 59 55 55 54 53 46 49 52 51 51 52 52 52 52
50 51 52 54 59 61 61 61 61 60 60 60 60 60 60 61 61 61 62 62 63 62 61 60 59 58 57 57 57 55 54 52 51 50 49 47 47 50 52 53 53 52 52
Lifted_Index
-1 -2 -2 -2 -1 -1 -0 0 1 1 1 -0 -1 -0 0 0 0 1 2 3 3 3 3 3 3 2 1 2 2 3 4 4 4 4 4 4 4 3 2 2 1 1 1
-1 -2 -2 -2 -1 -1 -1 -0 0 1 1 0 -0 -0 -0 -0 0 1 2 3 3 3 3 3 3 2 2 2 3 3 4 4 4 4 4 5 4 4 3 3 2 2 2
-2 -2 -2 -2 -2 -1 -1 -1 -0 0 0 -0 -0 -1 -0 -0 0 1 2 3 3 2 3 3 3 3 2 2 3 3 4 5 5 5 5 5 5 4 4 4 4 3 3
-2 -2 -2 -3 -2 -2 -1 -1 -0 -0 -0 -0 -1 -1 -1 -0 0 2 2 3 2 2 2 3 3 3 2 2 3 3 4 5 5 5 5 5 4 4 4 4 4 4 4
-3 -3 -3 -3 -3 -2 -2 -1 -0 -0 -0 -1 -1 -1 -1 -0 1 2 2 2 2 2 2 2 2 2 2 2 2 3 4 5 5 5 4 4 4 4 4 4 4 4 4
-3 -3 -3 -3 -3 -3 -2 -1 -0 -0 -1 -1 -1 -1 -1 0 1 2 2 2 3 3 2 2 2 2 2 2 2 3 4 5 5 4 4 3 3 3 3 4 4 4 4
-4 -4 -3 -3 -3 -3 -2 -1 -0 -0 -1 -1 -1 -1 -0 1 2 2 2 2 2 3 3 2 2 2 2 2 2 3 4 5 5 4 4 3 3 3 3 3 4 4 4
-4 -4 -3 -3 -3 -3 -2 -1 -0 -0 -0 -1 -1 -0 0 1 2 3 2 2 2 3 3 3 3 3 3 3 3 4 5 6 5 4 4 3 3 3 3 3 3 4 4
-3 -3 -3 -3 -2 -2 -2 -1 -0 0 -0 -0 -0 -0 1 2 3 3 3 3 3 3 3 4 4 5 5 5 5 6 7 7 6 5 4 3 3 2 2 2 3 4 4
-2 -2 -3 -2 -2 -2 -1 -1 -0 0 0 -0 -0 0 1 2 3 4 4 3 3 3 3 4 5 5 6 7 7 8 8 7 6 6 5 4 3 2 2 2 3 3 4
-0 -1 -2 -2 -2 -2 -1 -1 0 1 1 1 0 1 2 3 4 4 4 3 3 3 3 4 5 6 7 8 9 9 9 8 7 6 6 5 4 3 2 2 2 3 3
3 2 1 -1 -1 -2 -1 -1 1 2 2 2 1 1 2 3 4 4 3 3 3 3 4 4 5 7 8 9 9 9 8 7 7 6 6 5 4 3 3 2 2 2 2
5 4 3 2 0 -1 -2 -1 0 2 3 3 2 2 3 3 3 3 3 3 4 4 5 5 6 7 8 8 8 8 7 6 5 5 5 5 4 3 3 3 2 2 2
5 5 4 4 2 -0 -1 -1 -1 1 2 3 3 3 3 3 3 4 4 4 5 5 5 6 6 7 7 7 6 6 5 4 4 4 4 4 4 3 3 2 2 2 2
4 4 4 4 2 1 -0 -1 -2 -1 0 1 2 3 3 3 4 4 5 5 5 5 6 6 6 7 6 6 5 4 3 3 3 3 3 3 3 3 3 2 2 2 2
3 4 4 3 2 1 0 -1 -2 -2 -1 -0 1 2 3 3 4 4 5 5 5 5 6 6 6 6 5 4 3 3 3 2 2 2 2 2 3 3 2 2 1 1 1
3 3 3 3 3 1 1 -0 -1 -1 -2 -1 -1 1 1 2 3 3 4 3 4 4 5 5 5 4 4 3 3 2 2 2 2 2 2 2 2 2 2 2 1 1 1
2 3 3 3 3 2 1 0 -0 -1 -1 -2 -2 -1 -0 0 1 2 2 2 2 2 3 4 4 4 3 3 2 2 2 2 2 2 2 2 2 2 2 2 2 2 2
2 2 2 3 3 1 0 0 -0 -1 -1 -2 -2 -2 -2 -1 -0 0 1 0 0 1 2 3 3 3 3 2 2 2 2 2 2 2 2 3 3 3 2 2 3 2 2
1 1 2 2 2 1 1 0 -0 -1 -1 -2 -2 -2 -2 -2 -1 -1 -1 -1 -1 -0 0 1 2 2 2 2 2 2 2 2 2 2 3 3 4 3 3 3 3 3 3
1 1 2 2 2 1 1 0 0 -0 -1 -1 -2 -2 -2 -2 -2 -2 -2 -2 -1 -1 -0 0 1 1 1 1 1 1 2 2 2 2 3 4 4 4 3 3 2 2 3
1 1 2 2 2 1 1 1 1 1 0 -0 -1 -1 -1 -2 -2 -2 -1 -1 -1 -1 -0 -0 0 0 0 -0 -0 0 1 2 2 3 3 4 4 4 3 3 2 3 3
1 2 2 2 2 1 1 1 1 1 1 0 -0 -0 -0 -1 -1 -1 -1 -1 -1 -0 0 0 0 0 -0 -1 -0 0 1 1 2 3 4 4 4 4 3 3 3 3 3
2 2 2 2 1 1 1 1 1 1 1 1 1 1 1 1 0 0 0 -0 -0 0 1 1 1 0 -0 -0 0 0 1 1 2 3 4 4 5 4 4 4 4 5 4
2 2 2 1 1 0 0 1 1 0 1 1 1 1 2 2 1 1 1 1 1 1 1 1 1 1 1 1 1 1 2 2 2 3 4 4 5 5 5 5 5 5 5
1 2 2 1 0 -0 0 0 0 0 1 1 1 2 2 2 2 2 2 1 1 1 1 1 1 1 1 1 1 2 2 3 3 3 3 4 5 5 5 5 6 6 6